Location: *
(45.9500°N, 9.0833°E)
Time: 19:45:42
(UTC+00:00)

Tiros 1 - Pass Details

Date: 20 June 2021
Orbit: 630 x 664 km, 48.4° (Epoch: 05 August)

Event Time Altitude Azimuth Distance (km) Brightness Sun altitude
Rises 16:19:53 0° 282° (WNW) 2,963 11.8 27.8°
Reaches altitude 10° 16:23:12 10° 258° (WSW) 2,056 11.2 27.2°
Maximum altitude 16:25:43 14° 226° (SW) 1,785 10.1 26.7°
Drops below altitude 10° 16:28:13 10° 194° (SSW) 2,060 9.9 26.3°
Sets 16:31:33 0° 170° (S) 2,972 10.4 25.7°
